Location: Melbourne
(37.8170°S, 144.9670°E)
Time: 01:56:38
(UTC+10:00)

ISS - Visible Passes

Search period start: 25 May 2018 00:00
Search period end: 04 June 2018 00:00
Orbit: 402 x 407 km, 51.6° (Epoch: 25 May)

Date Brightness Start Highest point End Pass type
(mag) Time Alt. Az. Time Alt. Az. Time Alt. Az.
26 May -2.1 06:40:09 10° NNW 06:43:14 37° NE 06:46:22 10° ESE visible
27 May -0.9 05:48:47 10° N 05:51:12 19° NE 05:53:37 10° E visible
28 May -3.9 06:31:52 10° NW 06:35:12 79° SW 06:38:34 10° SE visible
29 May -2.9 05:41:39 29° NNW 05:43:00 49° NE 05:46:15 10° ESE visible
30 May -0.7 04:52:38 16° E 04:52:38 16° E 04:53:39 10° ESE visible
30 May -3.0 06:25:20 18° W 06:27:15 33° SSW 06:30:21 10° SE visible
31 May -2.8 05:35:58 38° SSE 05:35:58 38° SSE 05:38:15 10° SE visible
01 Jun -2.1 06:19:02 18° SW 06:19:26 18° SSW 06:21:52 10° SSE visible
02 Jun -1.2 05:29:14 14° SSE 05:29:14 14° SSE 05:29:54 10° SSE visible
03 Jun -1.4 06:11:58 12° SSW 06:11:58 12° SSW 06:13:01 10° S visible
